(361111) = 2004 TJ290 = 2006 DR211

Discovered at Mount Lemmon on 2006-02-24 by Mt. Lemmon Survey.

Orbit

Orbit type: Main Belt

Note: WebGL enabled browser required.

epoch2023-02-25.0
epoch JD2460000.5
perihelion date2020-01-28.75691
perihelion JD2458877.25691
argument of perihelion (°)175.39362
ascending node (°)350.52573
inclination (°)3.56887
eccentricity0.1293782
perihelion distance (AU)2.0048732
Tisserand w.r.t. Jupiter3.6
ΔV w.r.t. Earth (km/sec)8.8
semimajor axis (AU)2.3028061
mean anomaly (°)316.80466
mean daily motion (°/day)0.28204460
aphelion distance (AU)2.601
period (years)3.49
P-vector [x]-0.96997984
P-vector [y]0.22108248
P-vector [z]0.10129976
Q-vector [x]-0.24296938
Q-vector [y]-0.86348531
Q-vector [z]-0.44199434
absolute magnitude18.08
phase slope0.15
uncertainty0
referenceMPO 730824
observations used150
oppositions9
arc length (days)6622
first opposition used2004
last opposition used2022
residual rms (arc-secs)0.83
perturbers coarse indicatorM-v
perturbers precise indicator003El
first observation date used2004-10-10.0
last observation date used2022-11-27.0
computer namePan
JD of orbit computation2456909.169333
perihelion JD uncertainty (days)7.4825E-05
argument of perihelion uncertainty (°)5.8907E-05
ascending node uncertainty (°)5.6053E-05
inclination uncertainty (°)9.0638E-06
eccentricity uncertainty 1.1771E-07
perihelion distance uncertainty (AU)2.6492E-07
Minimum Orbit Intersection Distances (in AU)
for orbit epoch: 2460000.5, reference: E2022-WP2
Mercury1.61768
Venus1.28722
Earth1.01225
Mars0.34227
Jupiter2.36903
Saturn6.76499
Uranus16.4369
Neptune27.2974

Observations

154 total observations over interval: 2004 10 10.26077 – 2022 11 27.341080
These data are available for download (format description).

